Weather observations for the past three days for
Greater Portsmouth Regional Airport
Imperial (Metric)
Date Time (edt) Wind (mph) Vis. (mi.) Weather Sky Cond. Temperature (ºF) Relative Humidity Wind Chill (°F) Heat Index (°F) Pressure Precipitation (in)
Air Dwpt 6 hour altimeter (in) sea level (mb) 1 hr 3 hr 6 hr
Max. Min.
09 18:55 Vrbl 5 10.00 Fair CLR 71.6 50 47% 29.78 0.0
09 18:35 S 8 10.00 Fair CLR 73.4 50 44% 29.77 0.0
09 18:15 S 8 10.00 Fair CLR 71.6 50 47% 29.78 0.0
09 17:55 S 7 10.00 Fair CLR 73.4 50 44% 29.78 0.0
09 17:35 Vrbl 3 G 17 10.00 A Few Clouds FEW060 73.4 50 44% 29.78 0.0
09 17:15 Vrbl 3 10.00 A Few Clouds FEW060 73.4 51.8 47% 29.79 0.0
09 16:55 W 8 10.00 Partly Cloudy SCT060 73.4 51.8 47% 29.79 0.0
09 16:35 Vrbl 5 10.00 Partly Cloudy SCT060 71.6 50 47% 29.79 0.0
09 16:15 S 10 G 17 10.00 Partly Cloudy SCT050 SCT070 71.6 51.8 50% 29.79 0.0
09 15:55 Vrbl 3 10.00 Partly Cloudy SCT050 SCT070 71.6 51.8 50% 29.8 0.0
09 15:35 Vrbl 6 10.00 Mostly Cloudy SCT047 BKN055 BKN070 71.6 51.8 50% 29.8 0.0
09 15:15 Vrbl 5 10.00 Mostly Cloudy SCT047 BKN055 BKN070 71.6 53.6 53% 29.8 0.0
09 14:55 Vrbl 1 10.00 Overcast SCT047 BKN055 OVC070 69.8 51.8 53% 29.81 0.0
09 14:35 S 8 10.00 Mostly Cloudy SCT045 BKN065 69.8 51.8 53% 29.8 0.0
09 14:15 Vrbl 6 10.00 Mostly Cloudy SCT044 BKN060 BKN065 69.8 53.6 57% 29.8 0.0
09 13:55 Vrbl 3 10.00 A Few Clouds FEW037 68 53.6 68.7 53.2 60% 29.8 0.0
09 13:35 S 10 G 16 10.00 Fair CLR 68 53.6 60% 29.81 0.0
09 13:15 S 9 10.00 Fair CLR 66.2 53.6 64% 29.81 0.0
09 12:55 S 7 10.00 Fair CLR 64.4 53.6 68% 29.81 0.0
09 12:35 S 8 10.00 A Few Clouds with Haze FEW090 62.6 53.6 73% 29.81 0.0
09 12:15 S 9 10.00 Mostly Cloudy SCT065 BKN090 60.8 53.6 77% 29.81 0.0
09 11:55 S 13 10.00 Overcast OVC075 59 51.8 77% 29.82 0.0
09 11:35 S 7 10.00 Overcast BKN060 OVC075 57.2 51.8 82% 29.83 0.0
09 11:15 S 8 10.00 Light Rain BKN065 OVC075 55.4 51.8 88% 29.82 0.0
09 10:55 S 6 10.00 Overcast OVC065 55.4 50 82% 29.82 0.0
09 10:35 S 6 10.00 Mostly Cloudy BKN065 BKN080 BKN100 57.2 50 77% 29.82 0.0
09 10:15 S 8 10.00 Mostly Cloudy FEW080 BKN110 57.2 50 77% 29.82 0.0
09 09:55 S 6 10.00 Mostly Cloudy BKN110 55.4 50 82% 29.81 0.0
09 09:35 SE 5 10.00 Mostly Cloudy FEW060 BKN110 55.4 51.8 88% 29.81 0.0
09 09:15 S 3 10.00 Partly Cloudy FEW060 SCT110 55.4 50 82% 29.82 0.0
09 08:55 SW 3 10.00 Partly Cloudy SCT060 SCT100 55.4 51.8 88% 29.81 0.0
09 08:35 Vrbl 2 10.00 Light Drizzle OVC060 55.4 50 82% 29.82 0.0
09 08:15 NW 2 10.00 Overcast OVC060 53.6 50 88% 29.83 0.0
09 07:56 Calm 10.00 Overcast BKN070 OVC080 53.6 51.8 94% 29.82 0.0
09 07:35 Calm 10.00 Mostly Cloudy BKN075 BKN100 53.6 51.8 94% 29.82 0.0
09 07:15 S 2 10.00 Mostly Cloudy SCT075 BKN100 51.8 51.8 100% 29.82 0.0
09 06:55 S 3 10.00 Overcast OVC075 51.8 51.8 100% 29.81 0.0
09 06:35 Calm 10.00 Overcast BKN075 OVC090 51.8 50 94% 29.81 0.0
09 06:15 W 2 10.00 Overcast FEW048 SCT075 OVC090 53.6 50 88% 29.81 0.0
09 05:55 N 5 10.00 Overcast FEW050 SCT065 OVC070 53.6 50 88% 29.81 0.0
09 05:35 N 6 10.00 Overcast BKN050 OVC065 53.6 50 88% 29.82 0.0
09 05:15 NW 7 10.00 Overcast BKN050 OVC065 53.6 48.2 82% 29.82 0.0
09 04:55 Calm 10.00 Overcast FEW050 OVC075 53.6 50 88% 29.81 0.0
09 04:35 Vrbl 2 10.00 Overcast FEW050 OVC075 53.6 50 88% 29.81 0.0
09 04:15 NW 1 10.00 Overcast FEW060 OVC075 53.6 50 88% 29.81 0.0
09 03:55 Calm 10.00 Overcast FEW050 OVC075 53.6 50 88% 29.82 0.0
09 03:35 N 5 10.00 Overcast FEW039 SCT050 OVC070 53.6 51.8 94% 29.82 0.0
09 03:15 W 2 10.00 Overcast FEW047 SCT055 OVC070 53.6 50 88% 29.82 0.0
09 02:55 S 5 10.00 Overcast FEW046 FEW055 OVC070 53.6 51.8 94% 29.81 0.0
09 02:35 N 1 10.00 Overcast OVC070 55.4 51.8 88% 29.81 0.0
09 02:15 NW 1 10.00 Overcast FEW040 BKN070 OVC100 55.4 50 82% 29.82 0.0
09 01:55 E 1 10.00 Overcast FEW080 OVC100 55.4 50 66.9 54.1 82% 29.82 0.0
09 01:35 Calm 10.00 Overcast OVC100 55.4 48.2 77% 29.83 0.0
09 01:15 S 2 10.00 Overcast OVC100 55.4 50 82% 29.83 0.0
09 00:55 Calm 10.00 Overcast SCT090 OVC110 55.4 50 82% 29.83 0.0
09 00:35 N 2 10.00 Mostly Cloudy SCT090 BKN120 57.2 50 77% 29.83 0.0
09 00:15 Calm 10.00 Overcast FEW050 BKN070 OVC090 55.4 50 82% 29.83 0.0
08 23:55 Calm 10.00 Overcast BKN050 OVC070 57.2 50 77% 29.83 0.0
08 23:35 S 2 10.00 Light Rain SCT050 OVC070 57.2 48.2 72% 29.84 0.0
08 23:15 S 1 10.00 Overcast FEW046 OVC080 57.2 48.2 72% 29.84 0.0
08 22:55 SE 1 10.00 Mostly Cloudy SCT080 BKN110 57.2 46.4 67% 29.85 0.0
08 22:35 NW 2 10.00 Partly Cloudy SCT100 59 46.4 63% 29.85 0.0
08 22:15 SW 1 10.00 Partly Cloudy SCT090 59 46.4 63% 29.85 0.0
08 21:56 S 1 10.00 Partly Cloudy SCT100 59 44.6 59% 29.85 0.0
08 21:35 S 2 10.00 Mostly Cloudy BKN100 60.8 44.6 55% 29.84 0.0
08 21:15 S 5 10.00 Mostly Cloudy FEW065 SCT085 BKN110 60.8 46.4 59% 29.84 0.0
08 20:55 S 3 10.00 Overcast SCT065 BKN075 OVC120 62.6 44.6 52% 29.84 0.0
08 20:35 SW 2 10.00 Mostly Cloudy BKN100 BKN120 62.6 42.8 49% 29.84 0.0
08 20:15 S 2 10.00 Overcast OVC110 64.4 41 43% 29.84 0.0
08 19:55 S 3 10.00 Mostly Cloudy SCT095 BKN120 66.2 39.2 72.3 66.7 37% 29.84 0.0
08 19:35 Vrbl 3 10.00 Partly Cloudy SCT095 68 37.4 33% 29.84 0.0
08 18:55 Vrbl 3 10.00 Partly Cloudy FEW090 SCT110 69.8 37.4 31% 29.83 0.0
08 18:35 Vrbl 3 10.00 Mostly Cloudy BKN090 BKN110 69.8 37.4 31% 29.83 0.0
08 18:15 W 8 10.00 Overcast OVC100 69.8 37.4 31% 29.84 0.0
08 17:55 Vrbl 3 10.00 Overcast OVC100 69.8 37.4 31% 29.84 0.0
08 17:35 Vrbl 6 10.00 Partly Cloudy SCT110 69.8 37.4 31% 29.84 0.0
08 17:15 W 8 G 17 10.00 Fair CLR 71.6 37.4 29% 29.84 0.0
08 16:55 Vrbl 6 G 17 10.00 Fair CLR 71.6 37.4 29% 29.84 0.0
08 16:35 W 10 G 18 10.00 Fair CLR 71.6 37.4 29% 29.85 0.0
08 16:15 Vrbl 3 G 16 10.00 Fair CLR 71.6 37.4 29% 29.86 0.0
08 15:36 SW 10 G 16 10.00 A Few Clouds FEW120 69.8 37.4 31% 29.87 0.0
08 15:15 SW 9 G 18 10.00 Fair CLR 71.6 39.2 31% 29.88 0.0
08 14:55 S 10 G 18 10.00 Fair CLR 69.8 37.4 31% 29.89 0.0
08 14:35 S 10 G 20 10.00 A Few Clouds FEW075 69.8 37.4 31% 29.9 0.0
08 14:15 S 10 G 16 10.00 A Few Clouds FEW075 69.8 37.4 31% 29.92 0.0
08 13:35 Vrbl 7 G 23 10.00 Fair CLR 69.8 39.2 33% 29.94 0.0
08 13:15 SW 7 G 21 10.00 Fair CLR 68 39.2 35% 29.95 0.0
08 12:55 S 10 G 17 10.00 Fair CLR 68 39.2 35% 29.95 0.0
08 12:35 Vrbl 6 10.00 Fair CLR 68 39.2 35% 29.96 0.0
08 12:15 Vrbl 3 10.00 Fair CLR 66.2 39.2 37% 29.97 0.0
08 11:55 SW 7 10.00 Fair CLR 66.2 37.4 35% 29.99 0.0
08 11:35 Vrbl 2 10.00 Fair CLR 64.4 37.4 37% 29.99 0.0
08 11:15 Vrbl 6 10.00 Fair CLR 62.6 37.4 39% 30 0.0
08 10:55 SE 7 10.00 Fair CLR 60.8 41 48% 30 0.0
08 10:35 S 9 10.00 Fair CLR 57.2 41 55% 30 0.0
08 10:15 SE 7 10.00 Partly Cloudy SCT100 55.4 42.8 63% 30.01 0.0
08 09:35 SE 7 10.00 A Few Clouds FEW110 51.8 42.8 72% 30.01 0.0
08 09:15 S 8 10.00 Partly Cloudy SCT110 50 42.8 76% 47 30.01 0.0
08 08:55 SE 7 10.00 Partly Cloudy SCT120 46.4 42.8 87% 43 30.01 0.0
08 08:35 SE 6 10.00 Mostly Cloudy BKN080 42.8 42.8 100% 40 30.02 0.0
08 08:15 SE 7 10.00 Overcast OVC080 42.8 42.8 100% 39 30.01 0.0
08 07:55 S 6 10.00 Overcast OVC080 41 41 39.9 35.2 100% 38 30.01 0.0
08 07:35 S 7 1.50 Fog/Mist BKN002 OVC070 39.2 39.2 100% 35 30.01 0.0
08 07:15 S 6 5.00 Fog/Mist OVC002 37.4 37.4 100% 33 30 0.0
08 06:55 S 5 4.00 Fog/Mist BKN002 OVC075 35.6 35.6 100% 32 30 0.0
08 06:35 S 3 4.00 Fog/Mist SCT002 35.6 35.6 100% 30 0.0
08 06:15 S 3 3.00 Fog/Mist FEW002 35.6 35.6 100% 30 0.0
08 05:55 S 2 4.00 Fog/Mist SCT002 35.6 35.6 100% 29.99 0.0
08 05:36 S 3 4.00 Fog/Mist BKN002 35.6 35.6 100% 29.99 0.0
08 05:15 S 5 6.00 Fog/Mist CLR 35.6 35.6 100% 32 29.99 0.0
08 04:55 S 3 4.00 Fog/Mist CLR 35.6 35.6 100% 29.98 0.0
08 04:35 S 3 9.00 Fair CLR 35.6 35.6 100% 29.98 0.0
08 04:15 S 3 6.00 Fog/Mist CLR 35.6 35.6 100% 29.98 0.0
08 03:55 S 5 9.00 Fair CLR 35.6 35.6 100% 32 29.98 0.0
08 03:35 S 2 7.00 Fog/Mist CLR 35.6 35.6 100% 29.98 0.0
08 03:15 Vrbl 1 8.00 Fair CLR 35.6 35.6 100% 29.98 0.0
08 02:55 SE 1 10.00 Fair CLR 37.4 37.4 100% 29.99 0.0
08 02:35 S 2 10.00 Fair CLR 35.6 35.6 100% 29.99 0.0
08 02:15 S 2 10.00 Fair CLR 37.4 37.4 100% 29.99 0.0
08 01:55 S 2 10.00 Fair CLR 37.4 37.4 58.5 37.6 100% 29.99 0.0
08 01:35 S 1 10.00 Fair CLR 37.4 37.4 100% 29.99 0.0
08 01:15 NE 1 10.00 Fair CLR 39.2 39.2 100% 29.99 0.0
08 00:55 S 1 10.00 Fair CLR 39.2 39.2 100% 29.99 0.0
08 00:35 S 1 10.00 Fair CLR 39.2 39.2 100% 29.99 0.0
08 00:15 Calm 10.00 Fair CLR 41 39.2 93% 29.99 0.0
07 23:55 SE 1 10.00 Fair CLR 41 39.2 93% 29.99 0.0
07 23:35 S 2 10.00 Fair CLR 41 39.2 93% 29.99 0.0
07 23:15 S 2 10.00 Fair CLR 42.8 39.2 87% 29.99 0.0
07 22:55 S 1 10.00 Fair CLR 42.8 39.2 87% 29.99 0.0
07 22:35 Calm 10.00 Fair CLR 44.6 39.2 81% 29.99 0.0
07 22:15 Calm 10.00 Fair CLR 46.4 39.2 76% 29.98 0.0
07 21:55 Vrbl 1 10.00 Fair CLR 48.2 37.4 66% 29.98 0.0
07 21:35 NW 2 10.00 Fair CLR 48.2 35.6 62% 29.97 0.0
07 21:15 W 1 10.00 Fair CLR 50 37.4 62% 29.96 0.0
07 20:55 W 2 10.00 Fair CLR 51.8 33.8 50% 29.96 0.0
07 20:35 W 3 10.00 Fair CLR 53.6 32 44% 29.95 0.0
07 20:15 NW 5 10.00 Fair CLR 57.2 30.2 36% 29.95 0.0
07 19:56 NW 8 10.00 Fair CLR 57.2 30.2 36% 29.94 0.0
07 19:35 NW 8 G 17 10.00 Fair CLR 59 30.2 34% 29.94 0.0
07 19:15 NW 10 10.00 Fair CLR 60.8 30.2 31% 29.93 0.0
07 18:55 NW 8 10.00 Fair CLR 60.8 32 34% 29.93 0.0
07 18:35 NW 6 10.00 Fair CLR 60.8 30.2 31% 29.93 0.0
07 18:15 NW 9 10.00 Fair CLR 62.6 30.2 30% 29.93 0.0
07 17:55 W 10 10.00 Fair CLR 62.6 30.2 30% 29.92 0.0
07 17:35 W 10 G 17 10.00 Fair CLR 60.8 28.4 29% 29.92 0.0
07 17:15 NW 9 10.00 Fair CLR 62.6 30.2 30% 29.92 0.0
07 16:55 NW 10 G 17 10.00 Fair CLR 62.6 28.4 27% 29.91 0.0
07 16:35 NW 12 G 18 10.00 Fair CLR 62.6 26.6 25% 29.91 0.0
07 16:15 NW 10 10.00 Fair CLR 60.8 28.4 29% 29.91 0.0
07 15:55 Vrbl 7 G 18 10.00 Fair CLR 62.6 30.2 30% 29.91 0.0
07 15:35 N 10 G 18 10.00 Fair CLR 62.6 28.4 27% 29.92 0.0
07 15:15 NW 14 G 18 10.00 Fair CLR 62.6 30.2 30% 29.92 0.0
07 14:55 Vrbl 7 10.00 Fair CLR 60.8 30.2 31% 29.92 0.0
07 14:35 Vrbl 6 G 17 10.00 Fair CLR 60.8 32 34% 29.93 0.0
07 14:15 W 10 G 20 10.00 A Few Clouds FEW065 60.8 33.8 36% 29.93 0.0
07 13:55 W 10 G 16 10.00 Partly Cloudy SCT065 60.8 32 61.2 43.3 34% 29.93 0.0
07 13:35 Vrbl 6 G 17 10.00 Mostly Cloudy BKN065 59 33.8 39% 29.94 0.0
07 13:15 Vrbl 6 10.00 Partly Cloudy SCT065 59 32 36% 29.95 0.0
07 12:55 W 10 G 20 10.00 A Few Clouds FEW065 60.8 32 34% 29.95 0.0
07 12:35 NW 13 G 20 10.00 Partly Cloudy SCT055 60.8 33.8 36% 29.95 0.0
07 12:15 SW 8 10.00 Partly Cloudy SCT055 59 35.6 42% 29.96 0.0
07 11:56 N 8 10.00 Fair CLR 57.2 35.6 44% 29.96 0.0
07 11:35 W 10 10.00 Fair CLR 57.2 35.6 44% 29.96 0.0
07 11:15 Vrbl 6 10.00 Fair CLR 57.2 32 39% 29.96 0.0
07 10:55 W 8 10.00 Fair CLR 57.2 32 39% 29.96 0.0
07 10:35 Vrbl 3 10.00 Fair CLR 55.4 35.6 47% 29.96 0.0
07 10:15 N 8 10.00 Fair CLR 55.4 35.6 47% 29.97 0.0
07 09:55 Vrbl 5 10.00 Fair CLR 53.6 37.4 54% 29.97 0.0
07 09:35 N 6 10.00 Fair CLR 53.6 41 63% 29.97 0.0
07 09:15 N 5 10.00 Fair CLR 51.8 42.8 72% 29.98 0.0
07 08:55 Vrbl 3 10.00 Fair CLR 50 44.6 82% 29.98 0.0
07 08:35 Vrbl 1 10.00 Fair CLR 48.2 44.6 87% 29.99 0.0
07 08:15 Vrbl 1 10.00 Fair CLR 46.4 44.6 93% 29.98 0.0
07 07:55 Vrbl 2 10.00 Fair CLR 44.6 42.8 48.6 39 93% 29.98 0.0
07 07:35 Vrbl 1 10.00 Fair CLR 42.8 41 93% 29.98 0.0
07 07:15 NE 3 10.00 Fair CLR 41 41 100% 29.97 0.0
07 06:55 N 5 10.00 Fair CLR 39.2 39.2 100% 36 29.96 0.0
07 06:35 N 5 10.00 Fair CLR 39.2 39.2 100% 36 29.96 0.0
07 06:15 N 3 10.00 Fair CLR 41 41 100% 29.96 0.0
07 05:55 N 3 10.00 Fair CLR 41 41 100% 29.95 0.0
07 05:35 Calm 10.00 Partly Cloudy SCT060 41 41 100% 29.95 0.0
07 05:15 Calm 10.00 Overcast OVC060 41 41 100% 29.96 0.0
07 04:55 NE 1 10.00 Partly Cloudy SCT060 42.8 42.8 100% 29.95 0.0
07 04:35 N 3 10.00 Partly Cloudy SCT060 42.8 42.8 100% 29.95 0.0
07 04:15 N 2 10.00 Overcast OVC060 42.8 42.8 100% 29.95 0.0
07 03:55 NW 1 10.00 Mostly Cloudy BKN060 42.8 42.8 100% 29.95 0.0
07 03:15 Calm 10.00 Mostly Cloudy BKN060 44.6 42.8 93% 29.96 0.0
07 02:55 S 1 10.00 Mostly Cloudy BKN060 44.6 44.6 100% 29.95 0.0
07 02:35 N 3 10.00 Overcast OVC060 46.4 44.6 93% 29.95 0.0
07 02:15 NW 2 10.00 Overcast OVC060 48.2 44.6 87% 29.95 0.0
07 01:55 NW 1 10.00 Overcast OVC060 48.2 44.6 58.3 47.8 87% 29.96 0.0
07 01:35 NW 2 10.00 Overcast OVC050 48.2 44.6 87% 29.96 0.0
07 01:15 W 2 10.00 Overcast BKN050 OVC080 48.2 44.6 87% 29.97 0.0
07 00:55 Calm 10.00 Mostly Cloudy SCT060 BKN080 50 42.8 76% 29.97 0.0
07 00:35 Calm 10.00 Overcast BKN060 OVC075 51.8 42.8 72% 29.97 0.0
07 00:15 W 1 10.00 Overcast FEW060 OVC075 51.8 41 67% 29.97 0.0
06 23:55 N 3 10.00 Overcast SCT060 OVC075 53.6 41 63% 29.96 0.0
06 23:35 N 2 10.00 Overcast OVC060 53.6 41 63% 29.96 0.0
06 23:15 N 5 10.00 Overcast OVC060 53.6 41 63% 29.96 0.0
06 22:35 N 6 10.00 Overcast OVC050 55.4 41 59% 29.96 0.0
06 22:15 NW 5 10.00 Overcast OVC050 55.4 41 59% 29.96 0.0
06 21:55 NW 3 10.00 Overcast OVC050 55.4 41 59% 29.96 0.0
06 21:35 NW 6 10.00 Overcast OVC050 55.4 42.8 63% 29.94 0.0
06 21:15 NW 6 10.00 Overcast OVC050 55.4 42.8 63% 29.94 0.0
06 20:55 N 7 10.00 Overcast BKN050 OVC065 57.2 42.8 59% 29.93 0.0
06 20:35 N 10 10.00 Overcast SCT050 OVC065 57.2 42.8 59% 29.92 0.0
06 20:15 Vrbl 2 10.00 Overcast OVC060 57.2 42.8 59% 29.91 0.0
06 19:55 N 8 10.00 Overcast BKN060 OVC080 59 42.8 63.7 57 55% 29.9 0.0
06 19:35 N 10 10.00 Overcast BKN060 OVC080 59 42.8 55% 29.89 0.0
06 19:15 N 5 10.00 Overcast SCT050 OVC070 59 42.8 55% 29.89 0.0
Date Time (edt) Wind (mph) Vis. (mi.) Weather Sky Cond. Air Dwpt Max. Min. Relative Humidity Wind Chill (°F) Heat Index (°F) altimeter (in) sea level (mb) 1 hr 3 hr 6 hr
6 hour
Temperature (ºF) Pressure Precipitation (in)